Ionia, MI

10:23 PM EST on December 09, 2016 (GMT -0500)
Ionia

Weather History for KY70 - May, 2013

Change the Weather History Date:

Saturday, May 18, 2013

  Actual Average (KGRR) Record (KGRR)
Temperature  
Mean Temperature 68 °F -  
Max Temperature 81 °F 71 °F 90 °F (1962)
Min Temperature 54 °F 47 °F 28 °F (1973)
Cooling Degree Days 2    
Growing Degree Days 18 (Base 50)    
Moisture  
Dew Point 49 °F    
Average Humidity 55    
Maximum Humidity 73    
Minimum Humidity 34    
Precipitation  
Precipitation 0.00 in - - ()
Sea Level Pressure  
Sea Level Pressure 30.08 in    
Wind  
Wind Speed 8 mph (East)    
Max Wind Speed 13 mph    
Max Gust Speed 21 mph    
Visibility 10 miles    
Events      
Averages and records for this station are not official NWS values.
T = Trace of Precipitation, MM = Missing Value Source: NWS Daily Summary

Daily Weather History Graph

Daily Weather History Graph

Search for Another Location

Airport or City:

Trip Planner

Search our weather history database for the weather conditions in past years. The results will help you decide how hot, cold, wet, or windy it might be!

Date:

Astronomy

May. 18, 2013 Rise Set
Actual Time 6:13 AM EDT 8:59 PM EDT
Civil Twilight 5:41 AM EDT 9:33 PM EDT
Nautical Twilight 4:59 AM EDT 10:14 PM EDT
Astronomical Twilight 4:11 AM EDT 11:02 PM EDT
Moon 1:52 PM EDT (5/18) 2:16 AM EDT (5/18)
Length of Visible Light 15h 52m
Length of Day
14h 46m
First Quarter, 55% of the Moon is Illuminated
May 18
First Quarter
May 25
Full
May 31
Last Quarter
Jun 8
New
Jun 16
First Quarter

Hourly Weather History & Observations

Time (EDT) Temp. Heat Index Dew Point Humidity Pressure Visibility Wind Dir Wind Speed Gust Speed Precip Events Conditions
12:34 AM 57.9 °F - 46.4 °F 65% 30.13 in 10.0 mi ENE 6.9 mph - N/A   Overcast
12:54 AM 57.7 °F - 46.6 °F 66% 30.13 in 10.0 mi ENE 8.1 mph - N/A   Overcast
1:14 AM 57.4 °F - 46.4 °F 67% 30.13 in 10.0 mi ENE 8.1 mph - N/A   Overcast
1:34 AM 57.4 °F - 46.2 °F 66% 30.13 in 10.0 mi ENE 9.2 mph - N/A   Overcast
1:54 AM 57.2 °F - 46.4 °F 67% 30.12 in 10.0 mi ENE 9.2 mph - N/A   Overcast
2:14 AM 57.2 °F - 46.2 °F 67% 30.12 in 10.0 mi ENE 9.2 mph - N/A   Overcast
2:34 AM 56.7 °F - 46.0 °F 68% 30.11 in 10.0 mi East 6.9 mph - N/A   Overcast
2:54 AM 56.7 °F - 46.0 °F 68% 30.11 in 10.0 mi ENE 6.9 mph - N/A   Overcast
3:14 AM 56.5 °F - 46.0 °F 68% 30.12 in 10.0 mi ENE 8.1 mph - N/A   Overcast
3:34 AM 55.8 °F - 46.4 °F 71% 30.11 in 10.0 mi ENE 9.2 mph - N/A   Overcast
3:54 AM 55.4 °F - 46.2 °F 71% 30.11 in 10.0 mi ENE 9.2 mph - N/A   Overcast
4:14 AM 55.4 °F - 45.9 °F 70% 30.11 in 10.0 mi ENE 8.1 mph - N/A   Overcast
4:34 AM 54.9 °F - 45.7 °F 71% 30.12 in 10.0 mi East 8.1 mph - N/A   Overcast
4:54 AM 54.7 °F - 45.7 °F 72% 30.12 in 10.0 mi ENE 8.1 mph - N/A   Mostly Cloudy
5:14 AM 54.3 °F - 45.5 °F 72% 30.12 in 10.0 mi ENE 9.2 mph - N/A   Scattered Clouds
5:34 AM 54.1 °F - 45.5 °F 73% 30.13 in 10.0 mi ENE 6.9 mph - N/A   Mostly Cloudy
5:54 AM 54.1 °F - 45.5 °F 73% 30.13 in 10.0 mi ENE 5.8 mph - N/A   Overcast
6:14 AM 54.1 °F - 45.5 °F 73% 30.14 in 10.0 mi ENE 5.8 mph - N/A   Overcast
6:34 AM 54.0 °F - 45.1 °F 72% 30.14 in 10.0 mi East 5.8 mph - N/A   Overcast
6:54 AM 54.1 °F - 45.5 °F 73% 30.14 in 10.0 mi East 5.8 mph - N/A   Overcast
7:14 AM 54.5 °F - 45.7 °F 72% 30.14 in 10.0 mi East 6.9 mph - N/A   Overcast
7:34 AM 54.9 °F - 45.9 °F 72% 30.14 in 10.0 mi ENE 6.9 mph - N/A   Overcast
7:54 AM 55.2 °F - 46.0 °F 71% 30.15 in 10.0 mi ENE 8.1 mph - N/A   Overcast
8:14 AM 55.4 °F - 46.0 °F 71% 30.15 in 10.0 mi ENE 6.9 mph - N/A   Overcast
8:34 AM 55.6 °F - 46.6 °F 72% 30.14 in 10.0 mi ENE 8.1 mph - N/A   Overcast
8:54 AM 56.8 °F - 47.1 °F 70% 30.14 in 10.0 mi ENE 5.8 mph - N/A   Overcast
9:14 AM 59.5 °F - 47.7 °F 65% 30.13 in 10.0 mi East 8.1 mph - N/A   Scattered Clouds
9:34 AM 61.2 °F - 47.7 °F 61% 30.13 in 10.0 mi East 10.4 mph - N/A   Clear
9:54 AM 62.2 °F - 47.3 °F 58% 30.13 in 10.0 mi ESE 9.2 mph - N/A   Clear
10:14 AM 63.0 °F - 47.7 °F 57% 30.13 in 10.0 mi East 9.2 mph - N/A   Scattered Clouds
10:34 AM 64.6 °F - 48.0 °F 55% 30.13 in 10.0 mi ENE 9.2 mph - N/A   Scattered Clouds
10:54 AM 64.6 °F - 47.3 °F 53% 30.13 in 10.0 mi East 9.2 mph - N/A   Mostly Cloudy
11:14 AM 66.4 °F - 48.4 °F 52% 30.12 in 10.0 mi ENE 11.5 mph - N/A   Mostly Cloudy
11:34 AM 67.6 °F - 49.1 °F 51% 30.12 in 10.0 mi East 11.5 mph - N/A   Scattered Clouds
11:54 AM 68.7 °F - 49.5 °F 50% 30.11 in 10.0 mi ENE 9.2 mph - N/A   Clear
12:14 PM 70.5 °F - 48.0 °F 45% 30.10 in 10.0 mi East 8.1 mph - N/A   Clear
12:34 PM 71.1 °F - 47.7 °F 43% 30.10 in 10.0 mi East 9.2 mph - N/A   Clear
12:54 PM 72.7 °F - 48.2 °F 42% 30.09 in 10.0 mi East 11.5 mph - N/A   Clear
1:14 PM 74.8 °F - 47.8 °F 38% 30.08 in 10.0 mi ESE 6.9 mph - N/A   Clear
1:34 PM 75.0 °F - 47.8 °F 38% 30.08 in 10.0 mi East 11.5 mph - N/A   Clear
1:54 PM 75.9 °F - 48.9 °F 38% 30.07 in 10.0 mi East 8.1 mph 11.5 mph N/A   Clear
2:14 PM 76.8 °F - 48.9 °F 37% 30.06 in 10.0 mi ENE 11.5 mph 17.3 mph N/A   Clear
2:34 PM 77.7 °F - 49.5 °F 37% 30.06 in 10.0 mi East 10.4 mph - N/A   Clear
3:14 PM 78.8 °F - 50.2 °F 37% 30.05 in 10.0 mi East 8.1 mph - N/A   Clear
3:34 PM 78.8 °F - 49.5 °F 36% 30.04 in 10.0 mi NE 9.2 mph - N/A   Clear
3:54 PM 79.5 °F - 49.8 °F 35% 30.04 in 10.0 mi ENE 6.9 mph - N/A   Clear
4:14 PM 80.4 °F - 50.0 °F 34% 30.03 in 10.0 mi ENE 8.1 mph - N/A   Clear
4:34 PM 81.1 °F - 51.1 °F 35% 30.02 in 10.0 mi East 9.2 mph - N/A   Clear
4:54 PM 80.1 °F - 51.3 °F 37% 30.02 in 10.0 mi East 5.8 mph - N/A   Mostly Cloudy
5:14 PM 81.1 °F - 52.0 °F 36% 30.01 in 10.0 mi SSE 4.6 mph - N/A   Overcast
5:34 PM 80.4 °F 80.1 °F 53.6 °F 39% 30.01 in 10.0 mi ESE 3.5 mph - N/A   Mostly Cloudy
6:14 PM 81.5 °F - 52.0 °F 36% 30.00 in 10.0 mi Calm Calm - N/A   Mostly Cloudy
6:34 PM 80.1 °F 80.1 °F 54.9 °F 42% 30.00 in 10.0 mi ESE 9.2 mph - N/A   Overcast
6:54 PM 78.8 °F - 55.0 °F 44% 30.00 in 10.0 mi SE 6.9 mph - N/A   Overcast
7:14 PM 78.3 °F - 55.4 °F 45% 30.00 in 10.0 mi ESE 9.2 mph - N/A   Overcast
7:34 PM 77.7 °F - 55.9 °F 47% 30.00 in 10.0 mi ESE 6.9 mph - N/A   Overcast
7:54 PM 77.2 °F - 56.7 °F 49% 30.00 in 10.0 mi ESE 8.1 mph - N/A   Overcast
8:14 PM 76.6 °F - 56.5 °F 50% 30.00 in 10.0 mi SE 6.9 mph - N/A   Overcast
8:34 PM 75.6 °F - 57.2 °F 53% 30.00 in 10.0 mi ESE 6.9 mph - N/A   Overcast
8:54 PM 74.5 °F - 57.2 °F 55% 29.99 in 10.0 mi ESE 5.8 mph - N/A   Overcast
9:14 PM 74.3 °F - 57.2 °F 55% 30.00 in 10.0 mi SE 4.6 mph - N/A   Overcast
9:34 PM 73.0 °F - 56.3 °F 56% 30.00 in 10.0 mi SE 6.9 mph - N/A   Overcast
9:54 PM 72.5 °F - 55.9 °F 56% 30.01 in 10.0 mi East 4.6 mph - N/A   Mostly Cloudy
10:14 PM 71.8 °F - 55.2 °F 56% 30.02 in 10.0 mi East 4.6 mph - N/A   Overcast
10:34 PM 71.6 °F - 52.0 °F 50% 30.02 in 10.0 mi SSE 11.5 mph - N/A   Overcast
10:54 PM 71.1 °F - 43.5 °F 37% 30.03 in 10.0 mi SE 12.7 mph 20.7 mph N/A   Overcast
11:14 PM 69.3 °F - 43.9 °F 40% 30.03 in 10.0 mi SSE 9.2 mph - N/A   Overcast
11:34 PM 68.0 °F - 44.6 °F 43% 30.03 in 10.0 mi SSE 10.4 mph - N/A   Mostly Cloudy